Home > Weather > Kathua > Past weeks

Flag for India Past Weather in Kathua, Jammu and Kashmir, India — Yesterday and Last 2 Weeks

Now
77 °F

Fog.


Feels Like: 78 °F
Forecast: 76 / 93 °F
Wind: 1 mph from North

Location: Amritsar Airport

Current Time: Jul 28, 2016 at 4:35:56 AM

Latest Report: Jul 28, 2016 at 4:00 AM


Visibility: 2 mi

Pressure: 29.68 "Hg

Humidity: 100%

Dew Point: 77 °F

Location of KathuaLocation

Past Weather in Kathua — Graph

°F

Kathua Temperature Yesterday

Maximum temperature yesterday: 86 °F (at 12:00 AM)
Minimum temperature yesterday: 79 °F (at 6:00 PM)
Average temperature yesterday: 81 °F

High & Low Weather Summary for the Past Weeks

 TemperatureHumidityPressure
High99 °F (Jul 21, 1:00 PM)100% (Jul 13, 3:30 AM)29.74 "Hg (Jul 13, 3:30 AM)
Low73 °F (Jul 17, 5:00 AM)50% (Jul 21, 3:30 PM)29.42 "Hg (Jul 14, 5:30 PM)
Average87 °F89%29.56 "Hg
* Reported Jul 13 3:30 AM — Jul 28 3:30 AM, Kathua, Weather by CustomWeather, © 2016

Note: Actual official high and low records may vary slightly from our data, if they occured in-between our weather recording intervals... More about our weather records

Advertising

Kathua Weather History for the Previous 24 Hours

Scroll right to see more
 ConditionsComfort  
Time TempWeatherWind HumidityBarometerVisibility
3:30 AM
Thu, Jul 28
79 °FFog.2 mph100%29.68 "Hg2 mi
2:30 AM79 °FFog.2 mph100%29.71 "Hg2 mi
2:00 AM79 °FFog.2 mph100%29.71 "Hg2 mi
1:30 AM79 °FFog.5 mph100%29.71 "Hg2 mi
1:00 AM77 °FFog.3 mph100%29.71 "Hg2 mi
12:30 AM79 °FFog.3 mph100%29.71 "Hg2 mi
12:00 AM79 °FFog.2 mph100%29.71 "Hg2 mi
11:30 PM
Wed, Jul 27
79 °FFog.2 mph100%29.71 "Hg2 mi
11:00 PM79 °FFog.2 mph100%29.71 "Hg2 mi
10:30 PM79 °FFog.2 mph100%29.68 "Hg2 mi
10:00 PM79 °FFog.1 mph100%29.71 "Hg2 mi
9:30 PM79 °FFog.No wind100%29.68 "Hg2 mi
9:00 PM79 °FFog.3 mph100%29.68 "Hg2 mi
8:30 PM79 °FFog.2 mph100%29.68 "Hg2 mi
8:00 PM79 °FFog.No wind100%29.65 "Hg3 mi
7:30 PM79 °FFog.3 mph100%29.65 "Hg3 mi
7:00 PM79 °FFog.7 mph100%29.65 "Hg3 mi
6:30 PM79 °FFog.9 mph100%29.68 "Hg3 mi
6:00 PM79 °FFog.8 mph100%29.68 "Hg3 mi
5:30 PM81 °FFog.9 mph100%29.68 "Hg3 mi
5:00 PM81 °FFog.12 mph100%29.68 "Hg3 mi
4:30 PM82 °FFog.10 mph100%29.71 "Hg2 mi
4:00 PM82 °FFog.10 mph100%29.71 "Hg2 mi
3:30 PM82 °FFog.7 mph100%29.71 "Hg2 mi
3:00 PM81 °FFog.7 mph100%29.71 "Hg2 mi
11:30 AM82 °FThundershowers. More clouds than sun.5 mph100%29.74 "Hg1 mi
8:00 AM82 °FFog.12 mph100%29.68 "Hg1 mi
7:30 AM82 °FFog.12 mph100%29.68 "Hg1 mi
7:00 AM82 °FFog.12 mph100%29.65 "Hg1 mi
6:30 AM82 °FFog.14 mph100%29.65 "Hg1 mi
6:00 AM82 °FFog.15 mph100%29.62 "Hg1 mi
5:30 AM82 °FFog.13 mph100%29.62 "Hg1 mi
5:00 AM84 °FFog.14 mph100%29.62 "Hg1 mi
4:00 AM82 °FFog.13 mph100%29.59 "Hg1 mi
Weather by CustomWeather, © 2016

See weather overviewHow to use our weather pages